GFSSW_250_spd_273.txt.gz
Wind_Speed
58 56 50 44 40 42 42 41 40 36 36 43 44 39 38 33 35 31 34 33 35 36 41 43 40 38 34 35 33 34 33 33 34 30 33 42 43 45 44 38 32 43 49 60 74
58 57 56 47 47 42 43 43 43 32 43 45 45 43 34 37 35 36 34 34 36 34 42 41 42 39 35 34 36 38 35 36 37 40 42 46 47 47 56 48 44 43 48 63 75
64 58 56 55 53 49 46 45 44 43 40 44 42 40 40 37 38 35 33 34 37 33 39 38 38 40 37 36 35 37 37 37 40 44 46 51 53 59 61 63 57 45 51 59 70
66 62 60 59 56 53 46 48 45 46 46 45 42 38 40 36 35 40 34 34 36 36 38 39 34 40 38 37 38 40 39 39 42 45 49 53 55 62 64 65 52 53 55 60 62
68 65 64 61 59 57 55 49 51 46 46 46 44 38 39 39 43 41 35 35 38 36 38 40 36 38 36 38 41 41 40 40 42 46 50 54 55 65 63 69 62 58 53 53 54
70 65 67 64 61 61 61 54 53 50 46 47 46 42 42 43 43 38 35 37 40 35 41 38 37 34 38 37 40 44 40 40 41 45 50 55 58 62 66 73 77 62 55 50 51
76 73 62 64 64 61 61 56 54 49 46 47 45 44 44 40 43 37 34 34 40 37 39 37 36 34 41 39 41 42 42 40 41 46 51 55 61 64 71 76 79 69 58 49 43
66 64 64 63 58 61 61 59 54 56 51 47 47 44 44 40 36 36 38 34 40 39 37 40 36 36 39 42 41 43 43 40 42 45 51 54 61 66 73 78 82 77 62 53 41
72 66 62 60 62 61 61 60 57 57 49 45 45 46 42 39 38 39 35 36 45 43 37 39 39 37 37 40 41 43 44 40 41 46 49 54 61 66 72 79 85 81 69 51 39
64 65 63 63 63 62 60 59 51 51 44 41 42 40 40 40 38 36 35 41 44 36 38 37 41 38 36 38 41 44 45 40 41 45 49 54 61 67 72 79 83 83 68 52 42
50 52 51 53 59 58 59 56 56 55 49 46 47 46 37 38 37 34 39 39 35 32 41 35 41 37 38 36 39 42 45 42 42 47 48 55 61 67 73 78 82 81 68 57 47
58 57 54 52 49 52 53 52 52 57 51 53 51 42 37 33 34 35 35 34 30 33 36 37 41 38 38 37 36 42 45 42 41 45 48 55 58 66 71 77 81 81 78 68 58
62 63 62 58 55 59 55 60 56 52 51 43 42 37 31 28 31 32 35 36 32 30 34 38 40 38 37 35 35 43 44 41 41 45 47 53 56 62 70 75 80 80 83 77 66
68 63 61 63 60 62 59 55 53 56 47 40 41 33 30 31 34 38 36 33 31 31 32 34 37 38 37 34 36 41 42 41 40 43 46 50 55 61 68 71 76 80 81 80 63
75 72 69 63 63 61 62 59 59 58 51 47 43 43 41 40 38 39 36 35 31 33 33 32 35 37 38 35 34 39 40 40 40 41 47 48 51 59 66 66 74 77 79 79 70
78 77 76 74 70 64 61 59 56 56 54 54 51 49 45 45 42 39 41 37 43 34 34 34 34 36 39 35 35 37 39 39 40 40 44 46 48 56 61 63 70 73 74 74 78
83 82 81 80 78 71 67 65 62 58 60 57 58 53 53 49 43 42 43 40 38 34 34 36 33 33 37 35 34 36 37 36 36 38 42 44 45 50 56 60 66 69 71 72 76
87 86 86 80 79 79 76 71 63 58 63 63 61 59 58 54 51 47 43 39 38 35 36 37 33 33 34 34 33 34 34 33 34 38 40 41 42 48 52 56 60 65 66 69 74
94 94 91 87 87 81 80 76 69 62 63 62 60 58 57 57 51 46 43 40 38 37 37 38 37 35 33 33 34 33 33 32 33 34 36 39 40 45 49 51 56 60 62 66 71
100 99 97 91 92 86 80 73 71 64 59 58 58 55 55 52 45 40 40 40 38 39 40 42 37 36 32 33 34 33 32 32 31 30 33 36 38 43 44 47 51 55 57 61 66
92 95 92 88 81 73 69 67 63 58 58 60 56 54 55 51 43 36 40 39 38 39 41 40 37 35 32 32 33 34 32 32 30 30 32 33 37 41 38 43 48 50 52 56 61
93 93 89 82 76 70 67 64 64 62 62 60 60 60 52 46 41 38 42 39 41 42 41 37 38 37 32 31 32 33 33 32 30 28 29 30 35 38 37 40 43 47 48 51 55
89 87 85 85 77 69 70 68 67 65 63 60 61 63 57 51 43 39 42 44 43 44 42 39 35 33 33 31 32 34 33 31 29 28 27 29 35 34 35 36 40 44 47 48 49
91 89 85 85 75 72 71 71 69 66 67 62 64 64 63 55 50 44 44 45 43 46 44 42 42 35 32 30 30 33 33 32 28 27 27 28 31 32 34 32 35 41 44 45 44
92 91 87 80 76 75 75 74 71 69 68 66 64 63 64 63 55 50 45 45 45 46 43 42 40 38 32 29 30 35 34 34 29 27 29 27 29 30 33 30 33 37 41 43 41
96 92 88 82 81 82 80 74 73 69 69 65 65 65 67 62 64 55 47 48 48 46 47 46 40 38 33 29 30 34 34 33 29 29 30 28 28 29 31 27 31 34 38 40 39
98 91 90 87 85 80 73 75 73 73 73 70 69 66 66 63 67 61 54 51 47 48 50 49 42 36 31 30 31 33 34 32 27 29 30 30 30 28 28 27 29 32 32 36 38

GFSSW_250_spd_276.txt.gz
Wind_Speed
60 59 58 58 60 62 55 49 46 47 43 41 31 39 45 43 40 34 37 34 34 34 30 32 36 31 37 34 42 39 35 37 33 32 32 37 39 45 42 44 53 51 48 50 53
63 61 60 60 58 59 59 53 53 50 48 44 38 43 42 43 39 32 38 35 37 39 31 38 36 36 37 31 40 41 37 39 36 35 35 40 43 45 48 48 53 59 61 58 53
65 61 62 64 63 61 59 59 54 53 50 45 44 43 44 42 40 34 36 41 41 38 36 40 36 38 36 32 35 43 40 40 39 37 37 42 46 51 52 51 59 66 70 55 55
66 63 64 65 67 62 62 62 58 56 56 53 48 45 44 44 44 36 39 44 41 40 34 36 42 32 39 39 35 44 44 40 41 37 36 43 48 53 57 59 65 72 72 61 49
70 68 66 68 64 64 63 62 62 62 59 57 53 47 43 43 43 38 40 43 36 35 39 38 42 34 40 39 38 44 44 43 42 38 37 44 48 53 58 62 66 72 70 60 51
77 73 71 70 64 67 68 65 63 61 57 56 53 48 44 44 39 41 40 42 34 33 41 40 43 37 40 40 41 43 45 43 43 41 36 46 48 53 59 66 72 73 74 63 52
80 76 71 70 65 69 63 67 58 59 55 56 54 50 44 44 40 38 35 40 36 34 34 39 41 40 39 43 40 44 44 45 44 43 38 44 49 54 59 68 71 77 77 69 56
77 76 72 70 62 65 63 66 56 56 56 60 49 43 42 40 39 38 36 35 36 35 39 45 36 40 38 42 42 44 44 45 43 44 42 44 48 53 61 67 71 78 77 72 64
71 68 71 71 61 64 59 62 58 54 58 57 51 38 33 33 32 36 36 33 35 31 40 41 33 38 41 42 46 43 43 42 43 44 42 44 48 52 60 69 74 77 78 79 72
67 67 65 66 64 62 59 56 55 53 54 56 51 39 37 34 39 35 35 32 38 30 39 32 31 38 41 41 45 44 42 39 43 44 42 43 47 53 60 67 73 78 79 81 80
67 66 63 59 63 68 59 57 52 47 49 52 46 42 44 45 42 38 38 35 34 31 37 33 32 35 42 43 44 42 40 40 41 42 44 43 47 52 58 65 73 75 79 82 75
64 62 55 52 46 43 45 46 44 46 46 43 43 50 47 48 40 38 37 34 29 29 34 31 31 34 39 40 40 41 42 42 41 41 44 44 47 51 57 63 70 75 76 81 76
63 59 58 57 55 54 54 53 49 51 56 49 47 48 46 39 37 33 30 26 29 32 35 33 32 32 36 40 38 39 42 42 42 42 43 43 45 49 53 61 67 72 74 78 74
67 69 63 62 58 54 52 53 52 52 52 52 56 55 45 42 38 34 38 32 32 35 34 33 33 35 38 36 37 38 39 42 40 41 41 41 42 47 50 58 64 68 69 73 70
77 70 68 66 65 61 57 59 58 58 53 55 54 50 51 47 43 42 40 40 40 36 37 34 36 37 37 38 37 35 37 41 39 39 39 38 41 45 49 55 59 65 65 68 67
79 77 76 74 74 73 71 67 65 62 62 61 56 55 53 52 51 48 44 43 42 39 39 41 38 37 38 37 36 35 35 39 38 38 36 37 39 42 47 53 55 59 61 64 66
86 82 80 79 77 74 72 69 67 63 65 64 61 59 59 55 54 53 52 49 48 45 43 40 41 40 39 35 34 34 33 36 36 36 36 35 37 39 43 50 51 55 57 60 63
93 90 87 85 83 80 78 75 69 65 64 64 65 67 67 65 59 54 54 55 52 49 43 40 42 41 39 33 34 34 32 35 35 35 36 34 35 37 41 46 49 51 54 57 61
98 96 93 91 88 86 84 79 70 70 65 70 68 65 64 68 64 57 53 53 51 48 39 38 42 42 40 35 33 33 32 33 33 32 34 33 32 35 39 42 46 48 51 53 57
103 102 98 94 91 91 87 81 74 73 72 74 76 73 74 72 69 58 52 49 48 44 40 38 43 42 41 35 31 32 31 30 30 31 33 34 31 32 37 37 44 44 47 49 54
98 96 95 94 92 91 85 80 79 79 76 78 73 66 63 54 58 54 50 48 45 41 37 38 43 43 40 35 32 32 31 29 29 30 31 33 30 31 35 34 41 40 43 44 48
95 91 92 95 93 88 81 81 80 78 76 73 66 61 64 58 59 56 55 51 46 40 40 41 43 41 37 35 33 33 32 27 28 29 30 30 29 30 32 33 37 37 41 40 44
99 93 94 90 87 81 78 77 78 76 75 71 66 62 63 63 64 62 62 54 50 46 42 42 43 41 38 35 35 35 33 29 26 28 29 28 27 28 29 32 35 35 38 39 41
97 98 93 90 82 83 80 80 78 76 76 72 66 66 65 62 64 65 65 58 55 50 40 44 44 42 33 32 35 34 33 27 24 26 28 30 27 26 27 29 32 33 34 37 39
105 103 95 87 82 86 88 84 82 79 78 72 67 64 65 64 65 68 67 64 57 53 46 44 45 46 40 35 37 36 33 27 27 26 28 28 28 25 26 29 29 31 32 34 35
104 101 104 95 92 89 87 82 82 81 75 74 69 69 69 66 65 68 68 67 63 57 52 45 47 45 40 36 36 33 36 31 28 27 27 23 27 25 26 28 29 29 30 31 32
107 110 108 106 103 96 85 82 81 80 77 75 75 72 70 68 66 66 66 65 64 58 56 47 47 46 43 41 37 37 38 31 30 30 26 26 23 26 27 27 28 28 28 30 30

GFSSW_250_spd_279.txt.gz
Wind_Speed
60 56 57 61 58 59 59 55 57 56 54 52 46 45 43 41 40 39 37 37 33 35 38 37 39 29 34 30 39 37 34 37 36 35 38 39 39 39 40 44 45 46 49 56 53
69 65 60 61 62 61 61 58 55 57 58 52 52 49 50 46 40 40 39 39 37 35 39 34 40 32 36 41 41 36 35 36 37 39 41 43 42 42 44 47 48 49 58 61 65
71 73 67 63 65 66 62 62 62 59 61 54 53 52 49 54 43 39 39 38 36 33 39 38 35 34 39 45 40 37 38 37 41 42 41 44 45 45 48 50 53 49 57 56 63
74 70 67 69 68 69 69 64 66 62 61 62 58 55 51 52 44 39 38 38 36 29 37 35 29 40 45 43 41 38 38 39 43 41 44 45 46 46 49 54 57 53 59 63 66
73 73 71 74 74 69 71 69 68 65 65 59 61 55 54 46 46 41 39 37 35 31 34 38 30 35 42 44 40 41 39 42 42 41 45 43 45 48 51 56 57 57 65 72 68
74 76 75 80 76 70 72 75 72 68 58 58 57 53 50 51 48 42 38 36 33 30 30 37 39 35 40 45 37 38 39 42 44 41 42 43 46 49 51 55 59 62 68 73 72
81 80 79 77 73 70 67 67 65 66 57 57 54 47 48 52 46 39 38 34 31 32 29 37 40 35 41 45 35 40 41 42 43 39 40 42 45 47 50 54 58 64 70 74 70
80 78 76 71 68 65 63 60 59 61 56 51 52 48 49 49 42 35 33 29 30 34 35 36 39 37 42 36 32 40 43 41 38 38 39 41 44 46 50 55 59 63 68 71 68
69 67 66 70 67 66 60 59 59 61 57 48 48 46 44 40 36 32 30 35 36 33 36 37 37 37 38 35 32 39 41 40 38 39 41 40 44 47 51 55 58 62 67 67 71
66 74 69 65 69 66 60 60 55 56 56 49 48 46 39 41 36 37 40 40 35 35 36 39 37 35 40 35 34 38 38 37 36 38 41 41 43 45 50 55 58 62 65 66 70
72 77 69 70 70 65 65 62 56 56 53 54 44 42 38 40 42 38 40 34 32 36 37 35 30 32 35 33 34 37 39 38 38 36 40 41 44 45 48 53 56 60 62 64 70
62 63 63 61 61 61 61 65 56 55 45 42 36 39 39 43 45 42 41 36 34 31 25 26 31 32 34 35 35 37 42 39 38 35 38 41 43 45 47 52 55 58 60 64 68
55 55 55 55 55 55 54 53 49 45 45 47 47 52 43 43 42 42 43 39 32 33 29 30 33 34 37 36 37 37 40 40 39 35 37 39 41 42 45 51 53 57 58 62 68
63 59 56 59 57 54 55 55 53 50 47 47 47 48 49 48 46 50 44 43 37 37 36 36 34 34 35 40 40 39 39 40 38 36 35 37 39 41 44 48 52 54 53 59 65
71 71 65 65 64 65 61 60 58 53 51 53 52 55 57 55 51 50 51 42 44 44 40 40 41 41 39 38 40 40 39 37 35 35 32 36 37 38 41 44 48 50 52 57 63
76 74 73 73 73 71 67 68 69 63 56 56 60 61 62 61 57 54 51 47 47 47 49 46 45 44 42 40 42 42 39 35 33 32 33 34 36 36 39 42 44 47 50 55 59
84 81 76 78 78 76 74 73 70 65 60 59 62 64 62 61 59 57 55 54 54 50 51 52 50 49 47 40 41 43 39 35 32 30 32 33 34 36 38 38 42 45 45 51 56
89 86 87 85 83 80 79 77 72 66 68 65 68 69 68 66 65 61 57 57 53 55 61 58 50 48 43 40 41 42 38 37 31 29 30 31 33 36 36 35 38 41 43 49 52
98 96 95 92 91 87 84 80 76 75 74 74 72 70 68 68 66 63 62 62 62 59 56 52 49 45 44 41 40 42 37 34 28 29 30 31 31 32 33 32 35 38 40 45 48
104 100 100 96 96 95 90 84 82 80 76 76 75 73 71 72 70 66 65 66 68 61 46 44 43 43 43 42 41 42 36 34 30 28 29 28 30 31 31 30 32 35 38 40 43
105 106 105 101 100 99 94 88 86 82 80 77 76 73 70 67 69 69 68 68 61 51 44 45 42 43 43 43 45 41 38 35 30 27 26 27 27 29 30 28 28 31 34 37 38
107 106 106 102 97 97 92 89 86 83 78 75 73 72 71 70 71 65 63 60 56 48 44 47 45 43 44 46 45 40 35 37 33 29 25 26 26 25 28 28 26 29 31 33 34
93 100 101 100 97 95 90 88 85 82 79 76 74 72 71 71 69 65 61 57 56 53 50 46 45 47 45 47 46 39 35 33 30 29 27 25 23 25 26 27 25 27 28 30 30
96 101 98 93 93 88 84 82 83 80 79 78 74 72 73 72 68 65 62 60 60 58 53 52 50 48 46 48 47 39 34 31 28 29 29 29 26 24 24 25 24 25 27 29 28
97 92 84 87 89 84 85 80 81 81 81 81 78 76 77 76 71 69 66 63 62 61 57 54 53 50 46 45 47 41 40 38 34 28 29 32 28 23 24 23 22 23 27 27 27
100 96 91 87 88 84 81 75 76 76 78 81 78 78 78 78 74 71 68 62 62 61 60 54 53 53 49 46 45 43 44 41 36 31 32 35 33 20 25 24 21 22 25 27 27
109 103 101 98 94 95 91 88 83 84 82 80 79 80 80 77 74 72 68 64 62 61 57 55 55 53 51 47 44 42 45 41 39 39 33 36 31 24 27 25 21 21 25 25 26

GFSSW_250_spd_285.txt.gz
Wind_Speed
46 44 41 44 43 47 53 53 54 54 51 56 59 58 60 61 59 54 41 40 38 37 33 29 32 33 31 33 25 36 33 38 45 35 36 39 43 43 49 47 44 50 51 53 57
48 48 47 48 49 46 56 56 51 51 55 55 61 60 61 62 60 54 40 36 36 37 34 32 31 32 32 35 27 30 37 37 41 38 40 41 44 48 51 47 47 51 51 54 59
51 51 52 56 54 55 56 58 56 56 58 54 58 60 64 61 61 52 41 38 37 38 37 36 33 32 36 39 38 30 38 35 39 40 41 43 44 48 47 49 50 54 54 57 64
57 61 60 59 61 61 59 60 58 55 61 63 59 66 63 60 58 57 50 38 38 38 38 37 31 33 39 39 38 39 40 41 40 41 42 41 45 48 48 51 48 53 55 58 63
65 63 64 65 64 62 65 62 59 62 63 63 61 65 61 59 60 57 51 42 36 37 37 32 33 32 36 37 40 41 43 42 38 44 43 46 44 46 49 50 48 52 54 59 61
68 67 68 67 65 67 67 66 65 63 61 63 64 61 57 56 57 58 54 48 39 38 31 30 32 30 31 37 40 44 40 40 44 44 44 43 44 48 51 49 48 52 55 58 62
74 74 72 69 72 71 69 66 65 63 65 65 66 63 59 53 53 55 51 48 40 33 30 31 35 32 32 36 42 45 44 43 42 42 40 44 44 46 48 48 48 52 56 58 62
75 74 74 75 75 74 71 68 65 66 65 67 67 62 60 56 55 53 44 48 32 28 28 32 31 32 31 34 35 37 39 37 36 39 38 44 45 47 47 47 48 50 55 57 61
80 82 78 78 78 76 75 71 68 67 67 69 66 66 57 54 52 55 43 46 30 28 30 28 31 31 33 33 30 30 31 34 37 38 38 42 45 48 46 45 45 50 52 56 63
84 86 83 80 79 77 77 71 71 69 70 65 61 60 57 50 50 58 47 42 31 28 27 29 28 31 32 32 31 33 39 38 39 40 40 43 44 47 45 43 44 48 50 55 60
91 79 81 78 77 79 77 71 70 73 71 69 60 63 62 56 56 54 46 46 35 33 33 32 30 35 33 33 37 39 37 41 40 40 41 42 44 44 43 43 43 47 50 53 58
93 86 87 82 83 84 80 77 70 73 74 68 63 62 58 54 56 50 49 45 34 35 36 35 34 36 39 42 45 40 43 42 44 43 44 41 43 44 41 41 42 46 48 50 55
93 90 91 85 84 85 76 78 80 73 69 61 59 57 59 56 50 50 44 40 39 40 39 38 39 40 43 47 49 47 49 48 50 42 43 44 46 43 40 41 40 44 47 49 53
91 89 87 90 87 82 77 76 76 72 71 62 58 54 51 50 47 43 45 43 42 43 43 42 40 43 45 49 51 52 51 53 51 40 43 43 45 43 40 39 38 42 45 46 50
90 88 86 87 80 79 76 68 67 67 64 52 48 49 50 47 47 48 48 47 46 45 45 45 45 44 46 51 53 55 53 56 48 40 40 43 45 44 41 38 36 40 43 44 47
89 87 85 83 81 79 74 71 69 67 63 56 48 48 51 53 51 51 52 50 50 48 46 48 48 50 51 56 57 56 55 57 45 41 40 43 43 43 40 36 34 38 40 40 44
88 87 85 84 85 86 82 76 69 65 60 57 51 53 55 56 55 55 55 53 50 51 50 51 52 53 55 59 57 55 54 55 44 42 40 43 42 40 38 35 36 36 37 38 41
94 91 88 87 88 87 87 84 72 62 63 59 55 56 57 60 60 59 58 56 56 56 55 55 56 58 56 57 56 54 55 53 41 41 42 40 40 38 36 35 35 34 34 35 37
99 95 93 92 92 93 90 86 76 68 70 70 67 64 65 64 66 66 65 63 62 61 60 61 61 63 59 56 56 56 54 47 41 40 42 40 40 32 32 34 33 32 32 33 33
103 98 97 96 94 94 94 84 82 77 74 74 74 73 73 72 72 71 70 69 69 66 66 65 65 63 57 54 56 56 52 45 42 41 41 43 40 35 31 33 32 31 30 31 30
113 109 103 101 99 98 90 85 82 82 78 78 79 78 80 78 77 75 76 74 74 73 69 67 64 60 59 55 55 58 52 43 41 37 36 41 39 32 30 30 32 32 31 29 28
115 118 112 112 107 99 91 88 85 86 86 85 86 84 84 82 80 77 78 77 75 74 71 68 64 61 53 51 51 55 54 45 44 41 37 37 41 32 29 31 31 31 33 28 25
110 120 121 118 112 103 96 94 92 89 88 89 88 87 83 83 82 81 79 77 77 75 70 67 63 60 57 53 53 51 53 46 43 40 38 37 37 32 32 33 29 28 31 29 26
115 118 122 122 112 110 108 105 100 96 91 90 86 84 82 83 83 82 80 78 76 74 71 67 62 57 56 54 53 50 49 47 46 44 37 38 38 31 33 30 26 27 29 32 27
118 121 125 122 114 110 110 109 108 104 99 96 91 86 85 87 85 85 84 78 77 73 66 64 56 54 54 57 54 50 51 47 49 44 38 40 37 33 31 31 25 27 27 30 27
138 120 119 116 116 119 120 116 113 109 106 103 96 93 84 91 84 82 84 81 76 69 67 61 52 53 53 55 54 52 54 52 48 43 40 39 38 31 34 33 27 26 26 28 30
143 138 120 112 113 108 96 89 91 90 93 99 96 97 93 91 87 88 86 76 70 68 68 63 56 54 53 57 57 54 57 51 47 42 38 39 39 33 35 33 30 25 25 27 28

GFSSW_250_spd_288.txt.gz
Wind_Speed
44 44 42 36 38 39 41 42 45 47 51 49 50 49 50 56 59 59 58 53 50 49 40 35 34 34 36 35 34 35 39 42 40 36 41 41 43 45 43 44 50 51 49 49 49
48 47 49 46 43 40 42 48 50 51 52 53 55 49 55 55 59 58 60 54 53 52 47 35 35 36 38 34 34 37 39 43 44 40 42 44 43 42 47 48 49 51 50 49 51
54 52 53 51 45 45 48 49 51 53 53 55 57 56 54 56 59 58 61 58 58 53 50 41 35 37 33 33 35 36 37 39 42 43 41 42 44 49 48 47 49 51 52 51 53
56 55 58 52 50 50 53 53 54 55 57 55 57 55 54 54 58 60 59 55 58 53 52 41 38 31 30 33 32 33 37 39 41 44 41 44 47 48 47 48 50 51 52 53 55
61 62 59 62 61 60 58 57 57 59 58 57 57 55 52 54 59 62 58 53 55 54 50 41 36 28 32 34 33 35 38 38 40 41 43 43 44 45 45 49 51 51 52 55 54
61 61 61 63 63 64 61 61 63 60 60 60 57 57 54 57 58 59 61 55 51 54 45 43 29 31 31 32 31 34 38 38 36 36 40 39 42 44 44 47 49 50 53 54 52
67 62 63 65 67 67 65 65 64 63 62 62 62 59 61 59 55 60 57 54 51 55 48 44 31 31 34 31 31 29 31 33 34 34 36 41 42 43 44 46 49 49 51 52 51
75 72 71 71 72 70 71 67 68 68 67 65 62 61 59 60 57 60 58 53 49 44 54 43 32 32 30 31 30 30 32 35 37 41 42 41 40 43 45 46 48 49 51 51 52
81 81 80 77 74 74 77 77 71 68 69 68 61 59 61 58 56 58 56 54 54 50 55 49 34 31 30 30 31 32 37 36 37 42 41 45 41 45 44 46 48 49 49 51 53
86 85 84 82 82 80 78 76 73 71 69 64 60 62 62 56 57 56 58 51 56 47 52 46 38 33 31 31 31 36 39 43 43 45 47 53 41 43 44 46 48 49 48 50 52
91 91 90 85 84 80 76 80 75 73 72 64 64 66 67 66 61 55 55 51 52 52 49 49 37 34 35 34 35 39 41 45 49 52 52 54 48 39 44 45 47 47 45 48 50
97 96 92 89 88 82 79 81 81 76 75 69 63 71 66 65 60 56 56 51 52 52 50 44 40 38 38 39 41 42 44 48 53 54 57 56 52 41 41 44 45 45 44 45 49
98 96 94 97 89 89 86 84 80 80 75 70 69 70 70 71 67 62 53 51 50 50 48 43 44 45 43 43 44 45 47 50 54 56 58 57 50 43 43 44 42 41 42 44 48
100 96 96 90 87 89 90 89 83 77 75 71 71 70 71 69 64 57 54 51 49 45 45 47 46 47 47 47 48 49 50 53 55 56 56 58 47 45 45 43 39 41 39 43 47
98 98 95 93 89 93 91 88 86 82 77 71 72 70 71 68 62 54 50 47 46 45 48 49 48 47 46 50 51 52 53 55 54 56 57 58 48 44 46 42 37 39 39 42 45
105 103 100 96 90 87 88 87 85 81 74 69 67 63 63 57 56 52 46 45 45 48 49 49 49 48 50 53 53 53 53 55 55 56 57 56 49 43 44 44 34 38 40 43 44
103 100 95 96 93 91 86 83 83 78 72 64 61 56 55 55 52 48 46 46 49 51 51 51 51 52 54 55 56 56 56 56 55 56 57 54 49 43 44 46 36 35 39 41 42
101 102 95 96 92 89 90 88 80 72 69 63 62 63 64 61 55 53 51 51 52 53 53 53 53 55 58 57 57 58 57 55 54 55 57 54 48 43 44 45 35 34 36 38 40
105 103 100 99 96 93 92 88 74 72 71 69 69 69 66 61 58 56 55 55 54 55 55 55 55 58 59 61 61 63 58 54 51 54 57 55 49 40 39 40 36 33 34 36 39
115 112 104 102 97 98 95 84 79 76 74 72 72 70 67 65 65 63 60 59 59 58 59 59 60 62 63 64 64 60 59 56 51 49 54 55 51 39 36 38 35 33 32 35 38
118 117 113 109 102 104 97 86 85 83 82 78 75 72 71 74 71 70 66 65 64 63 64 66 66 66 66 65 64 63 60 53 50 50 51 50 48 38 32 35 35 34 33 33 34
119 118 116 117 114 105 96 93 91 91 87 84 83 81 77 77 77 74 71 72 70 69 69 70 68 67 66 64 64 64 61 58 50 49 49 46 48 36 32 33 32 31 30 29 31
117 119 122 122 119 109 103 97 95 90 86 84 83 83 81 77 76 76 73 74 75 75 74 71 70 69 66 66 65 64 63 54 47 46 47 44 45 38 33 32 31 28 27 28 29
110 121 123 122 120 114 111 108 102 94 91 89 89 85 82 81 81 80 77 78 78 78 78 76 71 68 67 67 63 65 59 48 44 44 43 45 45 41 29 32 30 29 27 28 28
115 119 118 120 116 114 114 112 109 103 101 96 92 86 83 78 76 75 76 80 79 80 79 76 74 73 68 65 62 56 48 44 43 43 41 46 45 45 30 32 30 30 29 26 27
133 128 124 116 115 113 106 106 102 102 106 101 94 91 88 84 82 81 67 62 71 70 74 73 71 74 72 66 54 52 50 46 47 47 45 45 47 38 32 29 28 30 28 27 26
148 146 142 131 127 121 115 108 106 105 103 103 104 104 98 94 91 85 82 84 80 76 76 75 79 80 71 64 54 51 51 50 51 51 49 46 46 38 33 30 29 29 29 25 23

GFSSW_250_spd_291.txt.gz
Wind_Speed
47 47 49 42 37 36 39 40 41 38 38 39 40 45 44 47 48 46 44 48 53 54 55 50 53 41 38 31 27 27 29 33 34 36 39 39 39 43 39 40 50 49 47 49 49
47 49 49 49 43 40 42 44 42 40 40 43 47 44 47 51 49 47 45 49 53 53 50 52 50 46 44 32 25 29 29 30 32 36 37 37 37 37 38 45 47 46 46 50 50
51 51 48 50 50 48 47 46 48 44 43 45 47 47 49 51 48 50 48 50 49 53 52 50 49 49 43 33 28 30 30 31 33 37 41 41 35 36 41 43 44 46 46 48 49
54 51 52 51 52 51 49 50 52 45 48 49 47 48 49 50 50 48 49 52 50 53 53 50 48 49 44 32 30 34 35 33 31 33 37 35 36 38 38 43 44 44 47 48 51
59 55 54 53 53 53 48 50 53 56 55 52 50 51 49 53 53 52 49 48 49 48 53 49 46 47 48 48 35 34 31 32 31 32 32 34 37 42 45 44 43 43 46 47 50
66 61 60 56 53 53 54 55 57 56 54 54 54 52 52 55 53 54 50 49 49 47 49 49 47 47 46 48 37 35 29 29 34 32 32 36 39 40 47 46 45 45 46 47 50
72 66 61 63 62 60 56 56 58 57 58 57 56 57 58 60 55 54 49 48 48 47 50 48 47 44 49 49 38 31 30 31 32 35 36 41 40 47 50 44 45 44 45 46 49
79 74 69 74 74 68 63 62 64 62 61 63 58 61 61 58 54 53 48 52 50 51 50 45 45 42 44 48 41 35 31 32 37 41 42 44 47 53 55 47 45 46 44 44 46
87 85 83 78 79 78 76 69 71 71 69 67 64 64 60 59 55 51 50 53 53 46 46 47 45 42 47 45 37 35 34 37 41 46 48 48 50 54 59 51 45 43 43 43 44
93 88 85 85 85 85 83 79 74 75 73 70 68 64 64 63 56 54 50 46 56 54 54 50 44 44 47 46 41 42 40 41 44 50 51 51 53 53 59 53 45 45 47 41 43
99 97 91 90 89 89 87 86 81 76 77 75 74 68 63 61 60 59 51 51 54 57 53 49 44 43 47 44 42 44 43 44 49 52 52 53 55 57 57 53 46 45 46 44 41
102 100 97 95 94 95 89 88 85 83 80 74 71 68 62 62 64 60 51 47 52 57 54 51 47 44 46 45 43 44 45 49 53 52 53 53 57 56 56 53 44 44 42 43 40
106 106 103 101 97 98 95 93 90 88 85 77 74 72 62 62 61 53 50 49 53 58 55 49 46 44 45 47 46 45 46 51 55 53 53 53 57 55 54 55 45 43 43 38 37
112 109 108 106 101 101 100 97 92 89 87 85 79 76 64 60 58 53 52 51 54 56 50 49 46 46 44 47 47 45 46 53 55 54 55 56 55 56 52 55 47 44 45 38 36
114 113 107 105 103 100 101 100 100 97 88 85 79 72 66 61 59 59 53 52 53 53 52 47 46 47 46 47 48 48 48 52 54 55 57 55 54 55 53 54 47 43 43 39 37
113 112 107 109 107 103 101 103 100 98 87 81 80 71 65 63 58 56 54 50 47 50 49 44 45 45 47 49 48 48 49 52 55 57 56 53 54 55 52 52 51 41 41 38 36
111 112 107 107 105 105 103 100 97 94 86 80 76 70 66 60 54 52 51 47 43 43 45 46 46 46 49 51 50 51 50 52 56 58 56 53 54 53 54 52 51 40 39 36 35
111 108 109 105 102 102 102 101 95 83 79 76 73 70 62 59 57 55 53 49 48 50 50 49 50 50 51 52 51 51 51 53 57 55 57 58 56 52 53 51 49 38 36 34 34
116 115 110 110 107 104 104 98 88 82 80 76 72 67 65 63 61 60 56 54 53 53 53 52 50 51 52 52 52 52 53 57 59 56 55 60 57 55 50 47 45 37 33 31 32
121 120 117 111 108 108 110 101 95 90 85 81 76 72 69 67 65 64 62 59 60 59 56 54 53 53 53 54 53 54 57 59 59 56 56 60 58 56 48 41 43 37 29 30 29
127 124 119 121 121 114 109 102 97 93 89 85 82 77 72 68 70 67 65 62 62 61 59 57 55 55 55 55 54 57 58 60 59 59 62 57 62 51 46 39 42 37 26 28 28
129 130 122 122 122 120 110 97 95 92 90 86 84 82 77 74 72 70 64 66 65 66 63 62 60 59 58 57 58 59 61 61 61 61 60 57 56 45 40 35 40 37 26 26 26
131 135 132 128 125 115 109 109 103 96 91 89 86 84 81 78 76 73 72 71 69 71 70 68 63 62 62 62 61 62 62 63 63 61 61 48 45 38 34 34 41 36 26 26 26
130 132 131 129 129 123 115 110 109 107 101 94 91 88 83 81 79 76 75 73 72 72 71 71 66 66 67 65 64 64 65 63 63 60 56 49 43 36 30 36 39 35 25 24 25
127 132 131 129 126 125 123 117 111 107 106 103 95 85 82 80 82 81 78 78 77 76 73 70 68 69 70 68 68 65 66 65 61 60 54 46 42 38 33 32 35 35 28 23 23
121 125 132 128 123 120 121 119 112 106 106 102 93 92 88 85 83 83 81 80 80 78 75 72 71 71 72 73 68 67 64 63 60 59 48 45 49 40 38 35 32 31 31 26 24
119 122 124 125 127 126 121 116 110 108 102 100 98 101 96 85 86 87 85 81 80 76 74 71 68 67 68 69 66 62 62 62 61 57 49 47 47 44 43 43 39 31 30 27 24

GFSSW_250_spd_297.txt.gz
Wind_Speed
49 45 41 45 42 41 38 37 38 40 37 35 30 31 33 33 35 31 33 34 34 38 43 41 34 32 35 34 33 36 35 35 36 40 42 44 38 38 43 44 38 38 39 42 42
53 48 45 45 43 42 40 40 42 38 39 36 35 36 33 35 38 37 34 37 36 37 41 42 36 35 35 31 35 39 36 37 36 38 41 43 43 40 45 47 44 43 44 44 42
60 54 51 44 46 46 41 43 41 41 37 36 38 37 39 39 38 40 40 37 36 40 41 45 42 37 35 30 32 35 32 37 38 35 38 43 45 41 42 51 49 49 47 47 46
60 60 59 58 53 54 47 44 44 42 41 41 39 40 39 40 40 37 44 41 41 39 43 45 43 41 37 28 33 34 31 36 38 35 37 41 43 42 44 52 53 54 50 50 48
70 68 66 62 60 57 52 51 49 49 47 45 42 41 41 42 42 41 42 42 44 42 44 45 46 42 41 32 31 33 32 34 40 34 37 40 41 47 45 50 56 57 54 52 51
72 69 70 66 64 61 59 54 53 53 51 50 46 47 44 42 43 45 45 46 47 47 45 46 46 42 43 36 34 34 32 32 36 37 37 40 41 48 49 50 58 59 58 53 53
83 80 72 72 69 67 66 61 60 59 57 55 51 50 46 44 47 48 48 48 49 51 50 51 52 45 45 41 36 36 33 33 35 39 38 40 42 48 51 52 58 61 60 52 55
88 85 81 77 73 74 71 66 69 67 62 58 56 54 51 53 53 52 51 53 53 53 54 56 54 50 44 46 36 38 31 29 35 37 39 42 44 47 52 53 59 61 62 55 57
92 91 89 86 83 81 78 73 74 74 69 65 65 61 58 59 58 57 56 57 56 55 55 56 54 52 49 46 39 37 32 30 32 36 40 43 45 49 52 55 58 61 64 58 58
96 95 93 91 91 86 82 80 79 74 77 72 70 65 65 66 63 62 61 61 62 61 54 58 56 55 50 44 40 37 32 31 33 36 40 45 48 49 52 56 58 62 64 62 59
101 100 99 96 97 94 90 85 82 81 80 78 74 71 70 72 70 69 65 65 65 65 63 62 60 54 52 44 39 38 33 34 34 38 41 47 49 50 50 55 59 63 65 65 60
109 106 103 100 100 99 96 90 87 85 84 81 79 77 75 76 77 74 71 68 67 65 63 66 63 59 53 45 41 38 33 33 33 39 43 49 51 51 51 54 58 63 65 67 59
111 109 107 106 105 102 99 96 95 92 90 86 84 82 80 80 83 79 76 73 69 69 69 67 62 58 55 47 38 38 33 32 35 39 43 49 53 51 50 54 58 62 67 69 59
114 112 113 110 107 105 106 101 101 100 95 90 88 86 87 86 83 84 82 73 71 70 69 67 67 60 53 45 37 35 34 33 35 39 43 46 53 52 51 55 59 63 68 69 59
122 121 114 114 111 113 110 107 107 106 100 96 92 89 89 89 85 82 79 79 78 72 68 64 60 56 48 43 42 36 34 35 35 39 42 48 53 52 52 56 60 63 68 69 61
124 121 120 115 115 114 112 114 112 112 104 100 97 96 94 88 88 85 83 81 77 69 66 63 60 54 49 46 44 36 37 37 36 39 44 48 52 52 52 57 60 62 69 71 59
125 123 121 118 118 116 113 113 114 113 103 102 98 99 94 91 87 88 87 84 81 74 65 63 55 52 48 46 41 37 37 37 38 41 44 49 51 51 53 57 59 62 69 72 57
125 123 121 121 119 119 116 116 114 109 110 105 101 100 98 94 92 90 87 83 80 71 67 61 60 56 50 41 38 37 40 40 39 43 48 51 51 52 54 57 58 63 70 70 54
124 126 126 119 121 118 119 119 108 104 106 108 104 103 98 97 95 90 86 81 76 73 68 60 57 54 48 44 42 40 42 41 44 43 48 53 54 53 55 57 60 64 68 66 52
129 131 124 123 123 125 127 120 110 109 105 101 101 102 99 98 96 89 84 75 70 70 64 61 62 54 47 45 43 42 43 48 48 47 51 56 55 55 56 59 60 63 67 63 49
130 134 131 127 123 129 126 117 117 117 113 104 99 97 96 99 96 92 84 77 75 73 70 66 64 56 51 47 46 47 46 50 51 50 52 57 57 56 57 59 59 62 64 60 44
118 124 127 130 131 133 129 123 118 119 117 110 106 96 93 92 92 91 83 76 75 74 75 71 66 59 54 53 50 49 55 56 52 53 55 57 59 57 58 59 58 61 59 54 41
106 111 115 122 127 129 126 126 125 122 119 113 109 106 100 95 92 86 83 80 79 78 79 75 68 64 62 59 54 53 59 55 51 54 57 57 59 57 55 58 57 58 53 52 40
95 99 103 110 112 114 118 120 122 122 121 118 114 114 105 99 96 89 86 83 82 80 78 77 71 67 65 63 60 56 58 55 53 55 58 61 58 56 54 57 57 53 52 47 40
80 81 89 97 96 105 112 111 113 115 119 118 114 111 105 103 100 96 91 85 85 83 81 80 74 70 67 64 60 59 59 57 52 55 57 62 58 58 53 56 54 51 52 45 41
73 73 78 83 88 99 103 102 107 109 114 109 105 105 107 107 105 103 97 96 91 87 83 79 78 74 67 66 66 62 59 56 55 57 60 60 59 57 53 50 50 49 48 44 42
78 77 78 81 85 91 93 93 97 109 110 108 103 103 102 101 103 105 103 101 98 94 91 85 79 76 74 76 73 61 56 59 58 57 59 58 61 54 51 47 46 49 49 44 46